Skip Page Navigation
NASA JPL Caltech
NASA Logo - Jet Propulsion Laboratory + View the NASA Portal
+ Near-Earth Object (NEO) Program
Search JPL
JPL Home Earth Solar System Stars & Galaxies Technology
JPL Solar System Dynamics
BODIES ORBITS EPHEMERIDES TOOLS PHYSICAL DATA DISCOVERY FAQ SITE MAP
JPL Small-Body Database Browser
Search: [ help ]  
6958 (1988 TX1)
Classification: Main-belt Asteroid          SPK-ID: 2006958
Ephemeris | Orbit Diagram | Orbital Elements | Physical Parameters | Discovery Circumstances | Close-Approach Data ]

[ show orbit diagram ]
Orbital Elements at Epoch 2457000.5 (2014-Dec-09.0) TDB
Reference: JPL 10 (heliocentric ecliptic J2000)
 Element Value Uncertainty (1-sigma)   Units 
e .09604089089231919 5.1573e-08  
a 3.02240964121804 2.9985e-08 AU
q 2.732134726633924 1.5789e-07 AU
i 9.153999183945444 7.8393e-06 deg
node 205.9169146899166 3.6312e-05 deg
peri 93.60201814417805 6.0634e-05 deg
M 62.46594833822385 4.4598e-05 deg
tp 2456667.480815712364
(2014-Jan-09.98081571)
0.00023949 JED
period 1919.236152382053
5.25
2.856e-05
7.819e-08
d
yr
n .1875746241822233 2.7913e-09 deg/d
Q 3.312684555802155 3.2864e-08 AU
  Orbit Determination Parameters
   # obs. used (total)      852  
   data-arc span      21682 days (59.36 yr)  
   first obs. used      1955-05-22  
   last obs. used      2014-10-01  
   planetary ephem.      DE431  
   SB-pert. ephem.      SB431-BIG16  
   condition code      0  
   fit RMS      .49736  
   data source      ORB  
   producer      Otto Matic  
   solution date      2014-Oct-09 14:08:37  

Additional Information
 Earth MOID = 1.73797 AU 
 T_jup = 3.220 
[ show covariance matrix ]

Ephemeris | Orbit Diagram | Orbital Elements | Physical Parameters | Discovery Circumstances | Close-Approach Data ]

Physical Parameter Table
Parameter Symbol Value Units Sigma Reference Notes
absolute magnitude H 12.9 mag n/a MPO265995  

6958 (1988 TX1)          Discovered 1988-Oct-13 by Ueda, S., Kaneda, H. at Kushiro (399)
Reference: DISCOVERY.DBLast Updated: 2003-08-29

[ show close-approach data ]
Alternate Designations
 1988 TX1 = 1993 SY1 
Ephemeris | Orbit Diagram | Orbital Elements | Physical Parameters | Discovery Circumstances | Close-Approach Data ]
ABOUT SSD CREDITS/AWARDS PRIVACY/COPYRIGHT GLOSSARY LINKS
FirstGov 2014-Oct-21 19:58 UT
(server date/time)  
NASA Home Page
Site Manager:   Donald K. Yeomans
Webmaster  Alan B. Chamberlin